Preview of NWS' New Version of Forecast
This preview is not operational and should not be used for support decisions.

Regional Weather Roundup (RWR)

Issued by Gray - Portland, ME (GYX)

                            
000
ASUS41 KGYX 240105
RWRGYX
WEATHER ROUNDUP FOR MAINE AND NEW HAMPSHIRE
NATIONAL WEATHER SERVICE GRAY ME
900 PM EDT SUN JUN 23 2019

MEZ002-005-006-010-012-015-018-020-021-024-026-027-029-240200-
MAINE
  
CITY           SKY/WX    TMP DP  RH WIND       PRES   REMARKS
PORTLAND       FAIR      74  46  36 W10       29.72S                  
SANFORD        FAIR      74  48  39 NW3       29.76R                  
BAR HARBOR     FAIR      58  56  93 W3        29.67S                  
WISCASSET      FAIR      67  53  61 CALM      29.71R                  
ROCKLAND       MOCLDY    68  54  60 NE7       29.69R                  
FRYEBURG       FAIR      73  43  33 W10       29.76R                  
LEWISTONAUBURN FAIR      75  47  36 NW9       29.72S                  
AUGUSTA        FAIR      74  49  41 NW9       29.70R                  
WATERVILLE     FAIR      70  50  49 W5        29.68R                  
BANGOR         FAIR      63  57  81 W7        29.68R                  
GREENVILLE       N/A     65  43  44 N12       29.70R                  
MILLINOCKET    FAIR      71  40  32 N9        29.69R                  
HOULTON        FAIR      59  39  47 N7        29.67R                  
PRESQUE ISLE   FAIR      60  40  47 NW7       29.72R                  
FRENCHVILLE    FAIR      60  35  39 N8        29.72R                  
CARIBOU        FAIR      59  38  45 N7        29.70R                  
$$

NHZ002-005-008-009-011-012-014-240200-
NEW HAMPSHIRE
  
CITY           SKY/WX    TMP DP  RH WIND       PRES   REMARKS
PORTSMOUTH     MOCLDY    75  48  38 W8        29.73R                  
ROCHESTER      FAIR      72  47  40 N3        29.75R                  
NASHUA         FAIR      74  54  49 CALM      29.77S                  
MANCHESTER     FAIR      78  48  34 CALM      29.75S                  
CONCORD        FAIR      70  49  47 CALM      29.77R                  
LACONIA        FAIR      73  47  39 W5        29.79R                  
PLYMOUTH       FAIR      68  49  51 CALM      29.78R                  
BERLIN         FAIR      71  44  37 VRB5      29.77S                  
WHITEFIELD     FAIR      68  43  40 W5        29.79S                  
JAFFREY        FAIR      73  53  49 W5        29.82S                  
KEENE          FAIR      73  56  54 VRB5      29.79F                  
LEBANON        FAIR      66  50  56 CALM      29.79R                  
MT WASHINGTON  MOCLDY    46  37  71 NW54G69     N/A                   
$$

VTZ005-007-008-240200-
VERMONT
  
CITY           SKY/WX    TMP DP  RH WIND       PRES   REMARKS
ST JOHNSBURY     N/A     69  47  45 MISG      29.77S                  
MONTPELIER     FAIR      70  45  40 NW9       29.85S                  
BURLINGTON     FAIR      75  46  35 NW8       29.80S                  
$$

MAZ007-012-024-CTZ003-RIZ002-NYZ038-NYZ072-240200-
SOUTHERN NEW ENGLAND AND NY
  
CITY           SKY/WX    TMP DP  RH WIND       PRES   REMARKS
BOSTON         MOCLDY    81  52  36 W13       29.75F                  
WORCESTER      FAIR      70  53  54 W10       29.82F                  
NANTUCKET      FAIR      65  56  72 W17       29.79F                  
PROVIDENCE     FAIR      76  62  62 W6        29.80S                  
HARTFORD       FAIR      77  50  38 W9        29.81F                  
ALBANY         FAIR      74  49  41 W15G23    29.85R                  
NEW YORK CITY  FAIR      83  49  30 W12       29.85S                  
$$

ANZ081-ANZ082-ANZ150-NHZ014-MEZ023>029-240200-
COASTAL MARINE OBSERVATIONS
  
STATION/POSITION TIME  TEMP    WIND        PRES    WAVE
                       AIR SEA DIR/SP/G            HT/PER
                 (UTC) (F)     (DEG/KT/KT) (MB)    (FT/S)
ISLE OF SHOALS   0000   81     280/ 13/ 14 1006.2R
JEFFREYS LEDGE   0038      58                N/A     1/ 8
$$

.............KEY..............
   WCI - WIND CHILL
   TC  - TEMPERATURE IN CELSIUS
   VSB - VISIBILITY IN MILES
   HX  - HEAT INDEX
   FAIR- INDICATES FEW OR NO CLOUDS BELOW 12,000 FT, WITH NO 
         SIGNIFICANT WEATHER AND/OR OBSTRUCTIONS TO VISIBILITY.